Weather History for New Delhi, India

Change the Weather History Date:

Friday, July 19, 2013

  Actual Average Record
Temperature  
Mean Temperature 88 °F -  
Max Temperature 95 °F 92 °F 104 °F (2002)
Min Temperature 82 °F 79 °F 78 °F (1998)
Cooling Degree Days 24    
Growing Degree Days 38 (Base 50)    
Moisture  
Dew Point 79 °F    
Average Humidity 76    
Maximum Humidity 94    
Minimum Humidity 56    
Precipitation  
Precipitation 0.00 in - - ()
Sea Level Pressure  
Sea Level Pressure 29.42 in    
Wind  
Wind Speed 6 mph ()    
Max Wind Speed 13 mph    
Max Gust Speed -    
Visibility 1.9 miles    
Events Rain    
Averages and records for this station are not official NWS values.
T = Trace of Precipitation, MM = Missing Value Source: Averaged Metar Reports

Daily Weather History Graph

Daily Weather History Graph

Search for Another Location

Airport:

Trip Planner

Search our weather history database for the weather conditions in past years. The results will help you decide how hot, cold, wet, or windy it might be!

Date:

Astronomy

Jul. 19, 2013 Rise Set
Actual Time 5:35 AM IST 7:19 PM IST
Civil Twilight 5:09 AM IST 7:45 PM IST
Nautical Twilight 4:38 AM IST 8:17 PM IST
Astronomical Twilight 4:04 AM IST 8:50 PM IST
Moon 3:53 PM IST (7/19) 1:49 AM IST (7/19)
Length of Visible Light 14h 36m
Length of Day
13h 43m
Waxing Gibbous, 83% of the Moon is Illuminated
Jul 19
Waxing Gibbous
Jul 22
Full
Jul 29
Last Quarter
Aug 7
New
Aug 14
First Quarter

Hourly Weather History & Observations

Time (IST) Temp. Heat Index Dew Point Humidity Pressure Visibility Wind Dir Wind Speed Gust Speed Precip Events Conditions
12:00 AM 86.0 °F 99.3 °F 78.8 °F 79% 29.44 in 1.7 mi SE 5.8 mph - N/A   Mostly Cloudy
12:30 AM 86.0 °F 99.3 °F 78.8 °F 79% 29.42 in 1.7 mi SSE 4.6 mph - N/A   Mostly Cloudy
1:00 AM 86.0 °F 101.9 °F 80.6 °F 84% 29.42 in 1.7 mi SSE 4.6 mph - N/A   Mostly Cloudy
1:30 AM 86.0 °F 101.9 °F 80.6 °F 84% 29.42 in 1.6 mi SSE 3.5 mph - N/A   Mostly Cloudy
2:00 AM 87.8 °F 104.9 °F 80.6 °F 79% 29.39 in 1.6 mi Calm Calm - N/A   Mostly Cloudy
2:30 AM 86.0 °F 101.9 °F 80.6 °F 84% 29.39 in 1.6 mi Calm Calm - N/A   Mostly Cloudy
3:00 AM 86.0 °F 101.9 °F 80.6 °F 84% 29.39 in 1.6 mi South 4.6 mph - N/A   Mostly Cloudy
3:30 AM 86.0 °F 101.9 °F 80.6 °F 84% 29.39 in 1.6 mi WSW 6.9 mph - N/A   Mostly Cloudy
4:00 AM 86.0 °F 101.9 °F 80.6 °F 84% 29.39 in 1.6 mi WSW 6.9 mph - N/A   Mostly Cloudy
4:30 AM 86.0 °F 101.9 °F 80.6 °F 84% 29.39 in 1.6 mi SW 4.6 mph - N/A   Mostly Cloudy
5:00 AM 84.2 °F 96.1 °F 78.8 °F 84% 29.39 in 1.6 mi SW 5.8 mph - N/A   Mostly Cloudy
5:30 AM 84.2 °F 96.1 °F 78.8 °F 84% 29.42 in 1.6 mi West 6.9 mph - N/A   Mostly Cloudy
6:00 AM 84.2 °F 100.6 °F 82.4 °F 94% 29.42 in 1.6 mi West 11.5 mph - N/A Rain Light Rain
6:30 AM 82.4 °F 92.4 °F 78.8 °F 89% 29.42 in 1.7 mi WSW 3.5 mph - N/A   Overcast
7:00 AM 82.4 °F 92.4 °F 78.8 °F 89% 29.39 in 1.7 mi SW 4.6 mph - N/A   Overcast
7:30 AM 84.2 °F 96.1 °F 78.8 °F 84% 29.39 in 1.7 mi SW 3.5 mph - N/A   Overcast
8:00 AM 86.0 °F 99.3 °F 78.8 °F 79% 29.42 in 1.7 mi SW 8.1 mph - N/A   Mostly Cloudy
9:00 AM 87.8 °F 104.9 °F 80.6 °F 79% 29.44 in 1.9 mi SW 9.2 mph - N/A   Mostly Cloudy
9:30 AM 87.8 °F 104.9 °F 80.6 °F 79% 29.44 in 1.9 mi SW 9.2 mph - N/A   Mostly Cloudy
10:00 AM 87.8 °F 104.9 °F 80.6 °F 79% 29.44 in - WSW 9.2 mph - N/A   Haze
10:30 AM 89.6 °F 104.7 °F 78.8 °F 70% 29.44 in 2.2 mi SW 9.2 mph - N/A   Haze
11:00 AM 89.6 °F 104.7 °F 78.8 °F 70% 29.44 in 2.2 mi West 4.6 mph - N/A   Haze
11:30 AM 91.4 °F 107.2 °F 78.8 °F 66% 29.44 in 2.2 mi WNW 4.6 mph - N/A   Haze
12:00 PM 91.4 °F 107.2 °F 78.8 °F 66% 29.44 in 2.2 mi WNW 5.8 mph - N/A   Haze
12:30 PM 93.2 °F 110.2 °F 78.8 °F 63% 29.44 in 2.2 mi WNW 6.9 mph - N/A   Haze
1:00 PM 93.2 °F 107.2 °F 77.0 °F 59% 29.42 in 2.2 mi West 9.2 mph - N/A   Haze
1:30 PM 93.2 °F 107.2 °F 77.0 °F 59% 29.42 in 2.2 mi WNW 8.1 mph - N/A   Haze
2:00 PM 93.2 °F 107.2 °F 77.0 °F 59% 29.42 in 2.2 mi West 5.8 mph - N/A   Haze
2:30 PM 93.2 °F 107.2 °F 77.0 °F 59% 29.39 in 2.2 mi NW 5.8 mph - N/A   Haze
3:00 PM 95.0 °F 109.7 °F 77.0 °F 56% 29.39 in - NW 4.6 mph - N/A   Haze
3:30 PM 95.0 °F 109.7 °F 77.0 °F 56% 29.39 in - North 5.8 mph - N/A   Haze
4:00 PM 95.0 °F 109.7 °F 77.0 °F 56% 29.39 in - NE 5.8 mph - N/A   Haze
4:30 PM 93.2 °F 117.1 °F 82.4 °F 71% 29.36 in - East 10.4 mph - N/A   Haze
5:00 PM 93.2 °F 117.1 °F 82.4 °F 71% 29.36 in - East 11.5 mph - N/A   Haze
6:00 PM 91.4 °F 111.0 °F 80.6 °F 71% 29.39 in 1.9 mi ESE 10.4 mph - N/A   Haze
6:30 PM 91.4 °F 111.0 °F 80.6 °F 71% 29.39 in 1.9 mi ESE 11.5 mph - N/A   Haze
7:00 PM 91.4 °F 111.0 °F 80.6 °F 71% 29.39 in 1.9 mi East 10.4 mph - N/A   Haze
7:30 PM 89.6 °F 108.2 °F 80.6 °F 75% 29.39 in 1.9 mi ESE 11.5 mph - N/A   Haze
8:00 PM 89.6 °F 108.2 °F 80.6 °F 75% 29.44 in 1.9 mi East 11.5 mph - N/A   Haze
8:30 PM 87.8 °F 102.5 °F 78.8 °F 75% 29.44 in 1.9 mi ESE 12.7 mph - N/A   Haze
9:00 PM 86.0 °F 99.3 °F 78.8 °F 79% 29.47 in 1.9 mi SE 11.5 mph - N/A   Mostly Cloudy
9:30 PM 84.2 °F 96.1 °F 78.8 °F 84% 29.47 in 1.9 mi SE 9.2 mph - N/A   Mostly Cloudy
10:00 PM 84.2 °F 96.1 °F 78.8 °F 84% 29.50 in 1.9 mi South 5.8 mph - N/A   Mostly Cloudy
10:30 PM 84.2 °F 96.1 °F 78.8 °F 84% 29.50 in 1.9 mi SSW 5.8 mph - N/A   Mostly Cloudy
11:00 PM 84.2 °F 96.1 °F 78.8 °F 84% 29.53 in 1.9 mi South 4.6 mph - N/A   Mostly Cloudy
11:30 PM 84.2 °F 96.1 °F 78.8 °F 84% 29.53 in 1.9 mi SW 4.6 mph - N/A   Mostly Cloudy